Weather History for Martha's Vineyard, MA

Change the Weather History Date:

Wednesday, February 20, 2013

  Actual Average Record
Temperature  
Mean Temperature 36 °F -  
Max Temperature 44 °F 42 °F 56 °F (1976)
Min Temperature 27 °F 25 °F 6 °F (1959)
Degree Days  
Heating Degree Days 29    
Moisture  
Dew Point 24 °F    
Average Humidity 66    
Maximum Humidity 100    
Minimum Humidity 39    
Precipitation  
Precipitation 0.53 in - - ()
Sea Level Pressure  
Sea Level Pressure 29.66 in    
Wind  
Wind Speed 11 mph (West)    
Max Wind Speed 20 mph    
Max Gust Speed 31 mph    
Visibility 10 miles    
Events      
Averages and records for this station are not official NWS values.
T = Trace of Precipitation, MM = Missing Value Source: NWS Daily Summary

Daily Weather History Graph

Daily Weather History Graph

Search for Another Location

Airport:

Trip Planner

Search our weather history database for the weather conditions in past years. The results will help you decide how hot, cold, wet, or windy it might be!

Date:

Astronomy

Feb. 20, 2013 Rise Set
Actual Time 6:30 AM EST 5:22 PM EST
Civil Twilight 6:02 AM EST 5:50 PM EST
Nautical Twilight 5:29 AM EST 6:23 PM EST
Astronomical Twilight 4:57 AM EST 6:55 PM EST
Moon 12:39 PM EST (2/20) 2:50 AM EST (2/20)
Length of Visible Light 11h 48m
Length of Day
10h 52m
Waxing Gibbous, 76% of the Moon is Illuminated
Feb 20
Waxing Gibbous
Feb 25
Full
Mar 4
Last Quarter
Mar 11
New
Mar 19
First Quarter

Hourly Weather History & Observations

Time (EST) Temp. Windchill Dew Point Humidity Pressure Visibility Wind Dir Wind Speed Gust Speed Precip Events Conditions
12:53 AM 44.1 °F 40.8 °F 43.0 °F 96% 29.59 in 10.0 mi West 5.8 mph - 0.08 in   Overcast
1:15 AM 42.8 °F 39.3 °F 42.8 °F 100% 29.58 in 10.0 mi WSW 5.8 mph - 0.03 in   Overcast
1:30 AM 42.8 °F 40.1 °F 42.8 °F 100% 29.57 in 10.0 mi WSW 4.6 mph - 0.04 in   Overcast
1:53 AM 42.1 °F 37.7 °F 41.0 °F 96% 29.59 in 10.0 mi SW 6.9 mph - 0.07 in   Overcast
2:06 AM 42.8 °F 35.8 °F 41.0 °F 93% 29.58 in 10.0 mi West 13.8 mph 21.9 mph 0.02 in   Overcast
2:15 AM 42.8 °F 35.4 °F 39.2 °F 87% 29.58 in 10.0 mi West 15.0 mph 21.9 mph 0.03 in   Overcast
2:29 AM 41.0 °F 33.9 °F 37.4 °F 87% 29.58 in 10.0 mi West 12.7 mph 19.6 mph 0.04 in   Mostly Cloudy
2:53 AM 39.9 °F 33.9 °F 37.0 °F 89% 29.58 in 10.0 mi West 9.2 mph 21.9 mph 0.07 in   Clear
3:53 AM 37.9 °F 30.5 °F 34.0 °F 86% 29.59 in 10.0 mi West 11.5 mph 20.7 mph 0.06 in   Scattered Clouds
4:36 AM 37.4 °F 28.9 °F 32.0 °F 81% 29.59 in 10.0 mi West 13.8 mph 20.7 mph 0.05 in   Mostly Cloudy
4:53 AM 37.0 °F 28.9 °F 32.0 °F 82% 29.60 in 10.0 mi West 12.7 mph 20.7 mph 0.06 in   Overcast
5:15 AM 37.4 °F 29.8 °F 32.0 °F 81% 29.60 in 10.0 mi West 11.5 mph 19.6 mph 0.02 in   Overcast
5:53 AM 37.0 °F 31.0 °F 33.1 °F 86% 29.62 in 10.0 mi WNW 8.1 mph 20.7 mph 0.06 in   Overcast
6:53 AM 35.1 °F 26.9 °F 26.1 °F 70% 29.65 in 10.0 mi WNW 11.5 mph 21.9 mph 0.05 in   Overcast
8:53 AM 34.0 °F 25.0 °F 21.0 °F 59% 29.69 in 10.0 mi West 12.7 mph 23.0 mph 0.04 in   Overcast
9:53 AM 36.0 °F 26.0 °F 19.0 °F 50% 29.69 in 10.0 mi West 17.3 mph 29.9 mph 0.03 in   Overcast
11:53 AM 37.0 °F 27.0 °F 16.0 °F 42% 29.68 in 10.0 mi West 18.4 mph 25.3 mph 0.01 in   Clear
12:53 PM 36.0 °F 26.7 °F 14.0 °F 41% 29.67 in 10.0 mi West 15.0 mph 31.1 mph N/A   Partly Cloudy
1:53 PM 36.0 °F 26.7 °F 12.9 °F 39% 29.66 in 10.0 mi West 15.0 mph 25.3 mph N/A   Clear
2:53 PM 35.1 °F 24.8 °F 12.9 °F 40% 29.67 in 10.0 mi WNW 17.3 mph 25.3 mph N/A   Mostly Cloudy
3:53 PM 34.0 °F 23.0 °F 12.0 °F 40% 29.68 in 10.0 mi West 18.4 mph 28.8 mph N/A   Mostly Cloudy
4:53 PM 33.1 °F 23.4 °F 12.0 °F 42% 29.70 in 10.0 mi West 13.8 mph 21.9 mph N/A   Scattered Clouds
5:53 PM 30.0 °F 17.9 °F 12.9 °F 49% 29.72 in 10.0 mi WNW 18.4 mph 28.8 mph N/A   Clear
6:53 PM 30.0 °F 17.9 °F 10.9 °F 45% 29.75 in 10.0 mi WNW 18.4 mph 26.5 mph N/A   Clear
7:53 PM 30.0 °F 17.5 °F 10.0 °F 43% 29.75 in 10.0 mi WNW 19.6 mph 26.5 mph N/A   Overcast
8:53 PM 28.9 °F 18.2 °F 9.0 °F 43% 29.78 in 10.0 mi WNW 13.8 mph 28.8 mph N/A   Clear
9:53 PM 28.0 °F 15.7 °F 10.0 °F 47% 29.79 in 10.0 mi WNW 17.3 mph 26.5 mph N/A   Partly Cloudy
10:53 PM 28.0 °F 17.5 °F 10.9 °F 49% 29.80 in 10.0 mi WNW 12.7 mph 25.3 mph N/A   Mostly Cloudy
11:53 PM 27.0 °F 13.9 °F 12.0 °F 53% 29.81 in 10.0 mi WNW 18.4 mph 28.8 mph N/A   Clear